Location: Christian Reformed Church
(43.0975°N, 93.8113°W)
Time: 11:43:34
(UTC+00:00)

Okean 1-7 Rocket - Pass Details

Date: 23 March 2026
Orbit: 609 x 643 km, 82.5° (Epoch: 13 April)

Event Time Altitude Azimuth Distance (km) Brightness Sun altitude
Rises 11:01:36 0° 348° (NNW) 2,911 7.1 -13.7°
Reaches altitude 10° 11:03:52 10° 345° (NNW) 1,994 6.2 -13.3°
Maximum altitude 11:08:13 62° 265° (W) 697 3.5 -12.5°
Drops below altitude 10° 11:12:30 10° 185° (S) 1,963 5.9 -11.8°
Sets 11:14:43 0° 182° (S) 2,859 6.8 -11.4°
